Year,Month,Day,Hour,Minute,Value (Times are PST for temperature in C)
2018,04,27,00,00,9.30
2018,04,27,00,01,9.30
2018,04,27,00,02,9.30
2018,04,27,00,03,9.30
2018,04,27,00,04,9.30
2018,04,27,00,05,9.30
2018,04,27,00,06,9.30
2018,04,27,00,07,9.30
2018,04,27,00,08,9.30
2018,04,27,00,09,9.30
2018,04,27,00,10,9.30
2018,04,27,00,11,9.20
2018,04,27,00,12,9.20
2018,04,27,00,13,9.20
2018,04,27,00,14,9.20
2018,04,27,00,15,9.20
2018,04,27,00,16,9.20
2018,04,27,00,17,9.20
2018,04,27,00,18,9.20
2018,04,27,00,19,9.20
2018,04,27,00,20,9.10
2018,04,27,00,21,9.10
2018,04,27,00,22,9.10
2018,04,27,00,23,9.10
2018,04,27,00,24,9.10
2018,04,27,00,25,9.10
2018,04,27,00,26,9.10
2018,04,27,00,27,9.10
2018,04,27,00,28,9.10
2018,04,27,00,29,9.00
2018,04,27,00,30,9.00
2018,04,27,00,31,9.00
2018,04,27,00,32,9.00
2018,04,27,00,33,9.00
2018,04,27,00,34,9.00
2018,04,27,00,35,8.90
2018,04,27,00,36,8.90
2018,04,27,00,37,8.90
2018,04,27,00,38,8.90
2018,04,27,00,39,8.90
2018,04,27,00,40,8.90
2018,04,27,00,41,8.90
2018,04,27,00,42,8.90
2018,04,27,00,43,8.80
2018,04,27,00,44,8.80
2018,04,27,00,45,8.80
2018,04,27,00,46,8.80
2018,04,27,00,47,8.80
2018,04,27,00,48,8.80
2018,04,27,00,49,8.80
2018,04,27,00,50,8.80
2018,04,27,00,51,8.80
2018,04,27,00,52,8.80
2018,04,27,00,53,8.80
2018,04,27,00,54,8.70
2018,04,27,00,55,8.70
2018,04,27,00,56,8.70
2018,04,27,00,57,8.70
2018,04,27,00,58,8.70
2018,04,27,00,59,8.70
2018,04,27,01,00,8.70
2018,04,27,01,01,8.70
2018,04,27,01,02,8.70
2018,04,27,01,03,8.70
2018,04,27,01,04,8.60
2018,04,27,01,05,8.60
2018,04,27,01,06,8.60
2018,04,27,01,07,8.60
2018,04,27,01,08,8.60
2018,04,27,01,09,8.60
2018,04,27,01,10,8.60
2018,04,27,01,11,8.60
2018,04,27,01,12,8.60
2018,04,27,01,13,8.60
2018,04,27,01,14,8.60
2018,04,27,01,15,8.60
2018,04,27,01,16,8.60
2018,04,27,01,17,8.50
2018,04,27,01,18,8.50
2018,04,27,01,19,8.50
2018,04,27,01,20,8.50
2018,04,27,01,21,8.50
2018,04,27,01,22,8.50
2018,04,27,01,23,8.50
2018,04,27,01,24,8.50
2018,04,27,01,25,8.50
2018,04,27,01,26,8.50
2018,04,27,01,27,8.50
2018,04,27,01,28,8.50
2018,04,27,01,29,8.50
2018,04,27,01,30,8.50
2018,04,27,01,31,8.50
2018,04,27,01,32,8.40
2018,04,27,01,33,8.40
2018,04,27,01,34,8.40
2018,04,27,01,35,8.40
2018,04,27,01,36,8.40
2018,04,27,01,37,8.40
2018,04,27,01,38,8.40
2018,04,27,01,39,8.40
2018,04,27,01,40,8.40
2018,04,27,01,41,8.40
2018,04,27,01,42,8.40
2018,04,27,01,43,8.40
2018,04,27,01,44,8.40
2018,04,27,01,45,8.40
2018,04,27,01,46,8.30
2018,04,27,01,47,8.30
2018,04,27,01,48,8.30
2018,04,27,01,49,8.30
2018,04,27,01,50,8.30
2018,04,27,01,51,8.30
2018,04,27,01,52,8.30
2018,04,27,01,53,8.30
2018,04,27,01,54,8.30
2018,04,27,01,55,8.30
2018,04,27,01,56,8.30
2018,04,27,01,57,8.30
2018,04,27,01,58,8.30
2018,04,27,01,59,8.20
2018,04,27,02,00,8.20
2018,04,27,02,01,8.20
2018,04,27,02,02,8.20
2018,04,27,02,03,8.20
2018,04,27,02,04,8.20
2018,04,27,02,05,8.20
2018,04,27,02,06,8.20
2018,04,27,02,07,8.20
2018,04,27,02,08,8.20
2018,04,27,02,09,8.20
2018,04,27,02,10,8.20
2018,04,27,02,11,8.20
2018,04,27,02,12,8.20
2018,04,27,02,13,8.20
2018,04,27,02,14,8.20
2018,04,27,02,15,8.20
2018,04,27,02,16,8.20
2018,04,27,02,17,8.20
2018,04,27,02,18,8.10
2018,04,27,02,19,8.10
2018,04,27,02,20,8.10
2018,04,27,02,21,8.10
2018,04,27,02,22,8.10
2018,04,27,02,23,8.10
2018,04,27,02,24,8.10
2018,04,27,02,25,8.10
2018,04,27,02,26,8.10
2018,04,27,02,27,8.10
2018,04,27,02,28,8.10
2018,04,27,02,29,8.10
2018,04,27,02,30,8.10
2018,04,27,02,31,8.10
2018,04,27,02,32,8.10
2018,04,27,02,33,8.10
2018,04,27,02,34,8.10
2018,04,27,02,35,8.10
2018,04,27,02,36,8.10
2018,04,27,02,37,8.10
2018,04,27,02,38,8.10
2018,04,27,02,39,8.00
2018,04,27,02,40,8.10
2018,04,27,02,41,8.10
2018,04,27,02,42,8.00
2018,04,27,02,43,8.00
2018,04,27,02,44,8.00
2018,04,27,02,45,8.10
2018,04,27,02,46,8.10
2018,04,27,02,47,8.10
2018,04,27,02,48,8.10
2018,04,27,02,49,8.10
2018,04,27,02,50,8.10
2018,04,27,02,51,8.10
2018,04,27,02,52,8.10
2018,04,27,02,53,8.00
2018,04,27,02,54,8.00
2018,04,27,02,55,8.00
2018,04,27,02,56,8.00
2018,04,27,02,57,8.00
2018,04,27,02,58,7.90
2018,04,27,02,59,7.90
2018,04,27,03,00,7.90
2018,04,27,03,01,7.90
2018,04,27,03,02,7.90
2018,04,27,03,03,7.90
2018,04,27,03,04,7.90
2018,04,27,03,05,7.90
2018,04,27,03,06,7.80
2018,04,27,03,07,7.80
2018,04,27,03,08,7.80
2018,04,27,03,09,7.80
2018,04,27,03,10,7.80
2018,04,27,03,11,7.80
2018,04,27,03,12,7.80
2018,04,27,03,13,7.80
2018,04,27,03,14,7.80
2018,04,27,03,15,7.80
2018,04,27,03,16,7.80
2018,04,27,03,17,7.80
2018,04,27,03,18,7.70
2018,04,27,03,19,7.70
2018,04,27,03,20,7.70
2018,04,27,03,21,7.70
2018,04,27,03,22,7.70
2018,04,27,03,23,7.70
2018,04,27,03,24,7.70
2018,04,27,03,25,7.70
2018,04,27,03,26,7.70
2018,04,27,03,27,7.70
2018,04,27,03,28,7.70
2018,04,27,03,29,7.80
2018,04,27,03,30,7.80
2018,04,27,03,31,7.80
2018,04,27,03,32,7.80
2018,04,27,03,33,7.80
2018,04,27,03,34,7.80
2018,04,27,03,35,7.80
2018,04,27,03,36,7.80
2018,04,27,03,37,7.80
2018,04,27,03,38,7.80
2018,04,27,03,39,7.90
2018,04,27,03,40,7.90
2018,04,27,03,41,7.90
2018,04,27,03,42,8.00
2018,04,27,03,43,8.00
2018,04,27,03,44,8.10
2018,04,27,03,45,8.10
2018,04,27,03,46,8.10
2018,04,27,03,47,8.20
2018,04,27,03,48,8.30
2018,04,27,03,49,8.40
2018,04,27,03,50,8.60
2018,04,27,03,51,8.70
2018,04,27,03,52,8.90
2018,04,27,03,53,9.10
2018,04,27,03,54,9.30
2018,04,27,03,55,9.50
2018,04,27,03,56,9.70
2018,04,27,03,57,9.90
2018,04,27,03,58,10.30
2018,04,27,03,59,10.80
2018,04,27,04,00,11.10
2018,04,27,04,01,11.30
2018,04,27,04,02,11.60
2018,04,27,04,03,11.80
2018,04,27,04,04,11.90
2018,04,27,04,05,11.90
2018,04,27,04,06,12.10
2018,04,27,04,07,12.30
2018,04,27,04,08,12.60
2018,04,27,04,09,12.90
2018,04,27,04,10,13.00
2018,04,27,04,11,13.20
2018,04,27,04,12,13.40
2018,04,27,04,13,13.60
2018,04,27,04,14,13.60
2018,04,27,04,15,13.50
2018,04,27,04,16,13.40
2018,04,27,04,17,13.20
2018,04,27,04,18,13.00
2018,04,27,04,19,12.80
2018,04,27,04,20,12.50
2018,04,27,04,21,12.30
2018,04,27,04,22,12.10
2018,04,27,04,23,11.90
2018,04,27,04,24,11.90
2018,04,27,04,25,11.80
2018,04,27,04,26,11.80
2018,04,27,04,27,11.90
2018,04,27,04,28,12.00
2018,04,27,04,29,12.00
2018,04,27,04,30,12.00
2018,04,27,04,31,12.00
2018,04,27,04,32,11.90
2018,04,27,04,33,11.80
2018,04,27,04,34,11.70
2018,04,27,04,35,11.60
2018,04,27,04,36,11.50
2018,04,27,04,37,11.40
2018,04,27,04,38,11.30
2018,04,27,04,39,11.20
2018,04,27,04,40,11.20
2018,04,27,04,41,11.20
2018,04,27,04,42,11.10
2018,04,27,04,43,11.10
2018,04,27,04,44,11.10
2018,04,27,04,45,11.10
2018,04,27,04,46,11.00
2018,04,27,04,47,10.90
2018,04,27,04,48,10.90
2018,04,27,04,49,10.90
2018,04,27,04,50,10.80
2018,04,27,04,51,10.80
2018,04,27,04,52,10.80
2018,04,27,04,53,10.80
2018,04,27,04,54,10.80
2018,04,27,04,55,10.80
2018,04,27,04,56,10.70
2018,04,27,04,57,10.70
2018,04,27,04,58,10.60
2018,04,27,04,59,10.60
2018,04,27,05,00,10.60
2018,04,27,05,01,10.50
2018,04,27,05,02,10.40
2018,04,27,05,03,10.40
2018,04,27,05,04,10.40
2018,04,27,05,05,10.30
2018,04,27,05,06,10.30
2018,04,27,05,07,10.30
2018,04,27,05,08,10.20
2018,04,27,05,09,10.20
2018,04,27,05,10,10.20
2018,04,27,05,11,10.20
2018,04,27,05,12,10.10
2018,04,27,05,13,10.10
2018,04,27,05,14,10.10
2018,04,27,05,15,10.10
2018,04,27,05,16,10.00
2018,04,27,05,17,10.00
2018,04,27,05,18,9.90
2018,04,27,05,19,9.90
2018,04,27,05,20,9.90
2018,04,27,05,21,9.80
2018,04,27,05,22,9.80
2018,04,27,05,23,9.80
2018,04,27,05,24,9.70
2018,04,27,05,25,9.70
2018,04,27,05,26,9.60
2018,04,27,05,27,9.60
2018,04,27,05,28,9.60
2018,04,27,05,29,9.50
2018,04,27,05,30,9.50
2018,04,27,05,31,9.40
2018,04,27,05,32,9.40
2018,04,27,05,33,9.40
2018,04,27,05,34,9.30
2018,04,27,05,35,9.30
2018,04,27,05,36,9.30
2018,04,27,05,37,9.30
2018,04,27,05,38,9.20
2018,04,27,05,39,9.20
2018,04,27,05,40,9.20
2018,04,27,05,41,9.20
2018,04,27,05,42,9.10
2018,04,27,05,43,9.10
2018,04,27,05,44,9.10
2018,04,27,05,45,9.10
2018,04,27,05,46,9.10
2018,04,27,05,47,9.10
2018,04,27,05,48,9.00
2018,04,27,05,49,9.00
2018,04,27,05,50,9.00
2018,04,27,05,51,8.90
2018,04,27,05,52,8.90
2018,04,27,05,53,8.90
2018,04,27,05,54,8.80
2018,04,27,05,55,8.80
2018,04,27,05,56,8.80
2018,04,27,05,57,8.70
2018,04,27,05,58,8.70
2018,04,27,05,59,8.70
2018,04,27,06,00,8.70
2018,04,27,06,01,8.60
2018,04,27,06,02,8.60
2018,04,27,06,03,8.60
2018,04,27,06,04,8.50
2018,04,27,06,05,8.50
2018,04,27,06,06,8.40
2018,04,27,06,07,8.40
2018,04,27,06,08,8.40
2018,04,27,06,09,8.30
2018,04,27,06,10,8.30
2018,04,27,06,11,8.30
2018,04,27,06,12,8.30
2018,04,27,06,13,8.20
2018,04,27,06,14,8.20
2018,04,27,06,15,8.20
2018,04,27,06,16,8.20
2018,04,27,06,17,8.10
2018,04,27,06,18,8.10
2018,04,27,06,19,8.00
2018,04,27,06,20,8.00
2018,04,27,06,21,7.90
2018,04,27,06,22,7.90
2018,04,27,06,23,7.90
2018,04,27,06,24,7.90
2018,04,27,06,25,7.90
2018,04,27,06,26,7.90
2018,04,27,06,27,7.80
2018,04,27,06,28,7.80
2018,04,27,06,29,7.80
2018,04,27,06,30,7.80
2018,04,27,06,31,7.80
2018,04,27,06,32,7.80
2018,04,27,06,33,7.80
2018,04,27,06,34,7.70
2018,04,27,06,35,7.70
2018,04,27,06,36,7.70
2018,04,27,06,37,7.70
2018,04,27,06,38,7.70
2018,04,27,06,39,7.70
2018,04,27,06,40,7.70
2018,04,27,06,41,7.70
2018,04,27,06,42,7.60
2018,04,27,06,43,7.60
2018,04,27,06,44,7.60
2018,04,27,06,45,7.60
2018,04,27,06,46,7.60
2018,04,27,06,47,7.60
2018,04,27,06,48,7.60
2018,04,27,06,49,7.60
2018,04,27,06,50,7.60
2018,04,27,06,51,7.60
2018,04,27,06,52,7.60
2018,04,27,06,53,7.60
2018,04,27,06,54,7.60
2018,04,27,06,55,7.60
2018,04,27,06,56,7.60
2018,04,27,06,57,7.60
2018,04,27,06,58,7.50
2018,04,27,06,59,7.50
2018,04,27,07,00,7.50
2018,04,27,07,01,7.50
2018,04,27,07,02,7.50
2018,04,27,07,03,7.50
2018,04,27,07,04,7.50
2018,04,27,07,05,7.60
2018,04,27,07,06,7.60
2018,04,27,07,07,7.60
2018,04,27,07,08,7.60
2018,04,27,07,09,7.60
2018,04,27,07,10,7.60
2018,04,27,07,11,7.60
2018,04,27,07,12,7.60
2018,04,27,07,13,7.70
2018,04,27,07,14,7.70
2018,04,27,07,15,7.70
2018,04,27,07,16,7.70
2018,04,27,07,17,7.70
2018,04,27,07,18,7.70
2018,04,27,07,19,7.70
2018,04,27,07,20,7.70
2018,04,27,07,21,7.80
2018,04,27,07,22,7.80
2018,04,27,07,23,7.80
2018,04,27,07,24,7.80
2018,04,27,07,25,7.80
2018,04,27,07,26,7.90
2018,04,27,07,27,7.90
2018,04,27,07,28,7.90
2018,04,27,07,29,8.00
2018,04,27,07,30,8.00
2018,04,27,07,31,8.00
2018,04,27,07,32,8.10
2018,04,27,07,33,8.10
2018,04,27,07,34,8.10
2018,04,27,07,35,8.20
2018,04,27,07,36,8.20
2018,04,27,07,37,8.30
2018,04,27,07,38,8.30
2018,04,27,07,39,8.40
2018,04,27,07,40,8.40
2018,04,27,07,41,8.50
2018,04,27,07,42,8.60
2018,04,27,07,43,8.60
2018,04,27,07,44,8.70
2018,04,27,07,45,8.80
2018,04,27,07,46,8.90
2018,04,27,07,47,9.00
2018,04,27,07,48,9.10
2018,04,27,07,49,9.20
2018,04,27,07,50,9.40
2018,04,27,07,51,9.50
2018,04,27,07,52,9.60
2018,04,27,07,53,9.70
2018,04,27,07,54,9.90
2018,04,27,07,55,10.00
2018,04,27,07,56,10.20
2018,04,27,07,57,10.40
2018,04,27,07,58,10.60
2018,04,27,07,59,10.80
2018,04,27,08,00,10.90
2018,04,27,08,01,11.10
2018,04,27,08,02,11.20
2018,04,27,08,03,11.40
2018,04,27,08,04,11.60
2018,04,27,08,05,11.90
2018,04,27,08,06,12.10
2018,04,27,08,07,12.30
2018,04,27,08,08,12.50
2018,04,27,08,09,12.70
2018,04,27,08,10,12.80
2018,04,27,08,11,13.00
2018,04,27,08,12,13.10
2018,04,27,08,13,13.30
2018,04,27,08,14,13.40
2018,04,27,08,15,13.50
2018,04,27,08,16,13.60
2018,04,27,08,17,13.80
2018,04,27,08,18,13.90
2018,04,27,08,19,14.00
2018,04,27,08,20,14.20
2018,04,27,08,21,14.30
2018,04,27,08,22,14.50
2018,04,27,08,23,14.60
2018,04,27,08,24,14.80
2018,04,27,08,25,14.90
2018,04,27,08,26,15.00
2018,04,27,08,27,15.00
2018,04,27,08,28,15.00
2018,04,27,08,29,15.10
2018,04,27,08,30,15.20
2018,04,27,08,31,15.30
2018,04,27,08,32,15.40
2018,04,27,08,33,15.50
2018,04,27,08,34,15.60
2018,04,27,08,35,15.60
2018,04,27,08,36,15.60
2018,04,27,08,37,15.70
2018,04,27,08,38,15.70
2018,04,27,08,39,15.80
2018,04,27,08,40,15.80
2018,04,27,08,41,15.90
2018,04,27,08,42,15.90
2018,04,27,08,43,15.90
2018,04,27,08,44,15.90
2018,04,27,08,45,16.00
2018,04,27,08,46,16.00
2018,04,27,08,47,16.10
2018,04,27,08,48,16.10
2018,04,27,08,49,16.20
2018,04,27,08,50,16.20
2018,04,27,08,51,16.30
2018,04,27,08,52,16.40
2018,04,27,08,53,16.30
2018,04,27,08,54,16.30
2018,04,27,08,55,16.20
2018,04,27,08,56,16.20
2018,04,27,08,57,16.10
2018,04,27,08,58,16.00
2018,04,27,08,59,15.90
2018,04,27,09,00,15.90
2018,04,27,09,01,15.90
2018,04,27,09,02,15.90
2018,04,27,09,03,16.00
2018,04,27,09,04,16.00
2018,04,27,09,05,15.90
2018,04,27,09,06,15.90
2018,04,27,09,07,15.90
2018,04,27,09,08,16.00
2018,04,27,09,09,16.00
2018,04,27,09,10,16.00
2018,04,27,09,11,16.00
2018,04,27,09,12,16.00
2018,04,27,09,13,16.10
2018,04,27,09,14,16.10
2018,04,27,09,15,16.10
2018,04,27,09,16,16.20
2018,04,27,09,17,16.20
2018,04,27,09,18,16.30
2018,04,27,09,19,16.30
2018,04,27,09,20,16.30
2018,04,27,09,21,16.40
2018,04,27,09,22,16.40
2018,04,27,09,23,16.50
2018,04,27,09,24,16.60
2018,04,27,09,25,16.70
2018,04,27,09,26,16.80
2018,04,27,09,27,17.00
2018,04,27,09,28,17.00
2018,04,27,09,29,17.10
2018,04,27,09,30,17.10
2018,04,27,09,31,17.20
2018,04,27,09,32,17.30
2018,04,27,09,33,17.30
2018,04,27,09,34,17.40
2018,04,27,09,35,17.40
2018,04,27,09,36,17.50
2018,04,27,09,37,17.70
2018,04,27,09,38,17.80
2018,04,27,09,39,17.90
2018,04,27,09,40,18.00
2018,04,27,09,41,18.00
2018,04,27,09,42,17.90
2018,04,27,09,43,17.90
2018,04,27,09,44,17.90
2018,04,27,09,45,18.00
2018,04,27,09,46,18.00
2018,04,27,09,47,18.00
2018,04,27,09,48,18.00
2018,04,27,09,49,17.90
2018,04,27,09,50,17.80
2018,04,27,09,51,17.80
2018,04,27,09,52,17.80
2018,04,27,09,53,17.80
2018,04,27,09,54,17.80
2018,04,27,09,55,17.70
2018,04,27,09,56,17.70
2018,04,27,09,57,17.60
2018,04,27,09,58,17.60
2018,04,27,09,59,17.70
2018,04,27,10,00,17.70
2018,04,27,10,01,17.70
2018,04,27,10,02,17.80
2018,04,27,10,03,17.80
2018,04,27,10,04,17.90
2018,04,27,10,05,18.00
2018,04,27,10,06,18.00
2018,04,27,10,07,18.10
2018,04,27,10,08,18.10
2018,04,27,10,09,18.10
2018,04,27,10,10,18.10
2018,04,27,10,11,18.10
2018,04,27,10,12,18.10
2018,04,27,10,13,18.10
2018,04,27,10,14,18.20
2018,04,27,10,15,18.20
2018,04,27,10,16,18.20
2018,04,27,10,17,18.30
2018,04,27,10,18,18.30
2018,04,27,10,19,18.20
2018,04,27,10,20,18.20
2018,04,27,10,21,18.20
2018,04,27,10,22,18.10
2018,04,27,10,23,18.10
2018,04,27,10,24,18.10
2018,04,27,10,25,18.00
2018,04,27,10,26,18.00
2018,04,27,10,27,18.00
2018,04,27,10,28,18.00
2018,04,27,10,29,18.00
2018,04,27,10,30,18.00
2018,04,27,10,31,18.00
2018,04,27,10,32,18.10
2018,04,27,10,33,18.10
2018,04,27,10,34,18.20
2018,04,27,10,35,18.30
2018,04,27,10,36,18.40
2018,04,27,10,37,18.40
2018,04,27,10,38,18.40
2018,04,27,10,39,18.50
2018,04,27,10,40,18.50
2018,04,27,10,41,18.40
2018,04,27,10,42,18.40
2018,04,27,10,43,18.40
2018,04,27,10,44,18.40
2018,04,27,10,45,18.30
2018,04,27,10,46,18.20
2018,04,27,10,47,18.10
2018,04,27,10,48,18.10
2018,04,27,10,49,18.10
2018,04,27,10,50,18.10
2018,04,27,10,51,18.10
2018,04,27,10,52,18.20
2018,04,27,10,53,18.10
2018,04,27,10,54,18.10
2018,04,27,10,55,18.10
2018,04,27,10,56,18.10
2018,04,27,10,57,18.00
2018,04,27,10,58,18.00
2018,04,27,10,59,18.10
2018,04,27,11,00,18.20
2018,04,27,11,01,18.20
2018,04,27,11,02,18.30
2018,04,27,11,03,18.30
2018,04,27,11,04,18.30
2018,04,27,11,05,18.20
2018,04,27,11,06,18.10
2018,04,27,11,07,18.00
2018,04,27,11,08,18.00
2018,04,27,11,09,17.90
2018,04,27,11,10,17.90
2018,04,27,11,11,17.80
2018,04,27,11,12,17.70
2018,04,27,11,13,17.70
2018,04,27,11,14,17.60
2018,04,27,11,15,17.70
2018,04,27,11,16,17.80
2018,04,27,11,17,17.90
2018,04,27,11,18,17.90
2018,04,27,11,19,18.00
2018,04,27,11,20,18.10
2018,04,27,11,21,18.10
2018,04,27,11,22,18.20
2018,04,27,11,23,18.30
2018,04,27,11,24,18.40
2018,04,27,11,25,18.40
2018,04,27,11,26,18.40
2018,04,27,11,27,18.50
2018,04,27,11,28,18.50
2018,04,27,11,29,18.60
2018,04,27,11,30,18.70
2018,04,27,11,31,18.80
2018,04,27,11,32,18.90
2018,04,27,11,33,19.00
2018,04,27,11,34,19.10
2018,04,27,11,35,19.10
2018,04,27,11,36,19.10
2018,04,27,11,37,19.10
2018,04,27,11,38,19.10
2018,04,27,11,39,19.20
2018,04,27,11,40,19.20
2018,04,27,11,41,19.20
2018,04,27,11,42,19.20
2018,04,27,11,43,19.30
2018,04,27,11,44,19.20
2018,04,27,11,45,19.00
2018,04,27,11,46,18.90
2018,04,27,11,47,18.90
2018,04,27,11,48,18.80
2018,04,27,11,49,18.80
2018,04,27,11,50,18.90
2018,04,27,11,51,19.00
2018,04,27,11,52,19.10
2018,04,27,11,53,19.20
2018,04,27,11,54,19.30
2018,04,27,11,55,19.30
2018,04,27,11,56,19.40
2018,04,27,11,57,19.50
2018,04,27,11,58,19.60
2018,04,27,11,59,19.70
2018,04,27,12,00,19.60
2018,04,27,12,01,19.50
2018,04,27,12,02,19.50
2018,04,27,12,03,19.40
2018,04,27,12,04,19.30
2018,04,27,12,05,19.30
2018,04,27,12,06,19.30
2018,04,27,12,07,19.10
2018,04,27,12,08,19.10
2018,04,27,12,09,19.00
2018,04,27,12,10,19.00
2018,04,27,12,11,19.00
2018,04,27,12,12,18.90
2018,04,27,12,13,18.90
2018,04,27,12,14,18.90
2018,04,27,12,15,18.90
2018,04,27,12,16,19.00
2018,04,27,12,17,19.10
2018,04,27,12,18,19.20
2018,04,27,12,19,19.30
2018,04,27,12,20,19.40
2018,04,27,12,21,19.40
2018,04,27,12,22,19.40
2018,04,27,12,23,19.40
2018,04,27,12,24,19.40
2018,04,27,12,25,19.40
2018,04,27,12,26,19.40
2018,04,27,12,27,19.50
2018,04,27,12,28,19.50
2018,04,27,12,29,19.60
2018,04,27,12,30,19.60
2018,04,27,12,31,19.60
2018,04,27,12,32,19.60
2018,04,27,12,33,19.60
2018,04,27,12,34,19.80
2018,04,27,12,35,19.80
2018,04,27,12,36,19.80
2018,04,27,12,37,19.80
2018,04,27,12,38,19.80
2018,04,27,12,39,19.80
2018,04,27,12,40,19.90
2018,04,27,12,41,19.90
2018,04,27,12,42,19.90
2018,04,27,12,43,19.90
2018,04,27,12,44,19.90
2018,04,27,12,45,19.80
2018,04,27,12,46,19.70
2018,04,27,12,47,19.60
2018,04,27,12,48,19.60
2018,04,27,12,49,19.60
2018,04,27,12,50,19.50
2018,04,27,12,51,19.40
2018,04,27,12,52,19.30
2018,04,27,12,53,19.20
2018,04,27,12,54,19.20
2018,04,27,12,55,19.20
2018,04,27,12,56,19.10
2018,04,27,12,57,19.10
2018,04,27,12,58,19.20
2018,04,27,12,59,19.30
2018,04,27,13,00,19.30
2018,04,27,13,01,19.30
2018,04,27,13,02,19.40
2018,04,27,13,03,19.30
2018,04,27,13,04,19.20
2018,04,27,13,05,19.20
2018,04,27,13,06,19.20
2018,04,27,13,07,19.20
2018,04,27,13,08,19.20
2018,04,27,13,09,19.20
2018,04,27,13,10,19.20
2018,04,27,13,11,19.20
2018,04,27,13,12,19.30
2018,04,27,13,13,19.30
2018,04,27,13,14,19.20
2018,04,27,13,15,19.10
2018,04,27,13,16,19.10
2018,04,27,13,17,19.10
2018,04,27,13,18,19.20
2018,04,27,13,19,19.30
2018,04,27,13,20,19.30
2018,04,27,13,21,19.30
2018,04,27,13,22,19.40
2018,04,27,13,23,19.30
2018,04,27,13,24,19.20
2018,04,27,13,25,19.10
2018,04,27,13,26,19.20
2018,04,27,13,27,19.20
2018,04,27,13,28,19.20
2018,04,27,13,29,19.20
2018,04,27,13,30,19.20
2018,04,27,13,31,19.20
2018,04,27,13,32,19.30
2018,04,27,13,33,19.40
2018,04,27,13,34,19.40
2018,04,27,13,35,19.40
2018,04,27,13,36,19.40
2018,04,27,13,37,19.40
2018,04,27,13,38,19.40
2018,04,27,13,39,19.40
2018,04,27,13,40,19.30
2018,04,27,13,41,19.30
2018,04,27,13,42,19.30
2018,04,27,13,43,19.30
2018,04,27,13,44,19.30
2018,04,27,13,45,19.20
2018,04,27,13,46,19.10
2018,04,27,13,47,19.10
2018,04,27,13,48,19.00
2018,04,27,13,49,18.90
2018,04,27,13,50,18.90
2018,04,27,13,51,19.00
2018,04,27,13,52,19.10
2018,04,27,13,53,19.10
2018,04,27,13,54,19.10
2018,04,27,13,55,19.10
2018,04,27,13,56,19.00
2018,04,27,13,57,19.00
2018,04,27,13,58,19.00
2018,04,27,13,59,19.00
2018,04,27,14,00,19.10
2018,04,27,14,01,19.10
2018,04,27,14,02,19.10
2018,04,27,14,03,19.20
2018,04,27,14,04,19.20
2018,04,27,14,05,19.20
2018,04,27,14,06,19.30
2018,04,27,14,07,19.30
2018,04,27,14,08,19.30
2018,04,27,14,09,19.30
2018,04,27,14,10,19.40
2018,04,27,14,11,19.50
2018,04,27,14,12,19.50
2018,04,27,14,13,19.60
2018,04,27,14,14,19.50
2018,04,27,14,15,19.50
2018,04,27,14,16,19.50
2018,04,27,14,17,19.50
2018,04,27,14,18,19.50
2018,04,27,14,19,19.60
2018,04,27,14,20,19.70
2018,04,27,14,21,19.80
2018,04,27,14,22,19.80
2018,04,27,14,23,19.80
2018,04,27,14,24,19.80
2018,04,27,14,25,19.90
2018,04,27,14,26,20.00
2018,04,27,14,27,20.00
2018,04,27,14,28,20.00
2018,04,27,14,29,20.00
2018,04,27,14,30,19.90
2018,04,27,14,31,19.80
2018,04,27,14,32,19.80
2018,04,27,14,33,19.80
2018,04,27,14,34,19.80
2018,04,27,14,35,19.70
2018,04,27,14,36,19.80
2018,04,27,14,37,19.90
2018,04,27,14,38,19.90
2018,04,27,14,39,20.00
2018,04,27,14,40,20.00
2018,04,27,14,41,19.90
2018,04,27,14,42,19.80
2018,04,27,14,43,19.80
2018,04,27,14,44,19.90
2018,04,27,14,45,19.90
2018,04,27,14,46,20.00
2018,04,27,14,47,20.00
2018,04,27,14,48,20.20
2018,04,27,14,49,20.20
2018,04,27,14,50,20.30
2018,04,27,14,51,20.30
2018,04,27,14,52,20.40
2018,04,27,14,53,20.50
2018,04,27,14,54,20.60
2018,04,27,14,55,20.70
2018,04,27,14,56,20.70
2018,04,27,14,57,20.80
2018,04,27,14,58,20.80
2018,04,27,14,59,20.80
2018,04,27,15,00,20.70
2018,04,27,15,01,20.50
2018,04,27,15,02,20.40
2018,04,27,15,03,20.30
2018,04,27,15,04,20.20
2018,04,27,15,05,20.30
2018,04,27,15,06,20.30
2018,04,27,15,07,20.30
2018,04,27,15,08,20.30
2018,04,27,15,09,20.20
2018,04,27,15,10,20.20
2018,04,27,15,11,20.10
2018,04,27,15,12,20.00
2018,04,27,15,13,19.90
2018,04,27,15,14,19.90
2018,04,27,15,15,19.90
2018,04,27,15,16,19.80
2018,04,27,15,17,19.80
2018,04,27,15,18,19.90
2018,04,27,15,19,19.90
2018,04,27,15,20,19.90
2018,04,27,15,21,19.90
2018,04,27,15,22,19.80
2018,04,27,15,23,19.70
2018,04,27,15,24,19.50
2018,04,27,15,25,19.40
2018,04,27,15,26,19.40
2018,04,27,15,27,19.30
2018,04,27,15,28,19.40
2018,04,27,15,29,19.40
2018,04,27,15,30,19.40
2018,04,27,15,31,19.50
2018,04,27,15,32,19.50
2018,04,27,15,33,19.50
2018,04,27,15,34,19.60
2018,04,27,15,35,19.60
2018,04,27,15,36,19.60
2018,04,27,15,37,19.60
2018,04,27,15,38,19.60
2018,04,27,15,39,19.60
2018,04,27,15,40,19.50
2018,04,27,15,41,19.50
2018,04,27,15,42,19.50
2018,04,27,15,43,19.50
2018,04,27,15,44,19.50
2018,04,27,15,45,19.40
2018,04,27,15,46,19.50
2018,04,27,15,47,19.50
2018,04,27,15,48,19.50
2018,04,27,15,49,19.40
2018,04,27,15,50,19.40
2018,04,27,15,51,19.40
2018,04,27,15,52,19.30
2018,04,27,15,53,19.20
2018,04,27,15,54,19.20
2018,04,27,15,55,19.00
2018,04,27,15,56,18.90
2018,04,27,15,57,18.90
2018,04,27,15,58,18.80
2018,04,27,15,59,18.70
2018,04,27,16,00,18.60
2018,04,27,16,01,18.50
2018,04,27,16,02,18.40
2018,04,27,16,03,18.30
2018,04,27,16,04,18.20
2018,04,27,16,05,18.10
2018,04,27,16,06,18.00
2018,04,27,16,07,17.90
2018,04,27,16,08,17.70
2018,04,27,16,09,17.70
2018,04,27,16,10,17.60
2018,04,27,16,11,17.50
2018,04,27,16,12,17.40
2018,04,27,16,13,17.30
2018,04,27,16,14,17.20
2018,04,27,16,15,17.10
2018,04,27,16,16,17.10
2018,04,27,16,17,17.00
2018,04,27,16,18,16.90
2018,04,27,16,19,16.90
2018,04,27,16,20,16.90
2018,04,27,16,21,16.90
2018,04,27,16,22,16.80
2018,04,27,16,23,16.60
2018,04,27,16,24,16.50
2018,04,27,16,25,16.30
2018,04,27,16,26,16.20
2018,04,27,16,27,16.10
2018,04,27,16,28,16.00
2018,04,27,16,29,15.90
2018,04,27,16,30,15.70
2018,04,27,16,31,15.70
2018,04,27,16,32,15.70
2018,04,27,16,33,15.60
2018,04,27,16,34,15.60
2018,04,27,16,35,15.50
2018,04,27,16,36,15.40
2018,04,27,16,37,15.30
2018,04,27,16,38,15.10
2018,04,27,16,39,15.00
2018,04,27,16,40,15.00
2018,04,27,16,41,15.00
2018,04,27,16,42,14.90
2018,04,27,16,43,14.80
2018,04,27,16,44,14.70
2018,04,27,16,45,14.60
2018,04,27,16,46,14.60
2018,04,27,16,47,14.60
2018,04,27,16,48,14.60
2018,04,27,16,49,14.70
2018,04,27,16,50,14.70
2018,04,27,16,51,14.70
2018,04,27,16,52,14.70
2018,04,27,16,53,14.60
2018,04,27,16,54,14.60
2018,04,27,16,55,14.50
2018,04,27,16,56,14.30
2018,04,27,16,57,14.20
2018,04,27,16,58,14.10
2018,04,27,16,59,14.00
2018,04,27,17,00,14.00
2018,04,27,17,01,13.90
2018,04,27,17,02,14.00
2018,04,27,17,03,14.00
2018,04,27,17,04,13.90
2018,04,27,17,05,13.90
2018,04,27,17,06,13.90
2018,04,27,17,07,13.90
2018,04,27,17,08,13.90
2018,04,27,17,09,13.90
2018,04,27,17,10,13.90
2018,04,27,17,11,13.80
2018,04,27,17,12,13.80
2018,04,27,17,13,13.80
2018,04,27,17,14,13.70
2018,04,27,17,15,13.60
2018,04,27,17,16,13.60
2018,04,27,17,17,13.70
2018,04,27,17,18,13.60
2018,04,27,17,19,13.60
2018,04,27,17,20,13.70
2018,04,27,17,21,13.70
2018,04,27,17,22,13.70
2018,04,27,17,23,13.70
2018,04,27,17,24,13.60
2018,04,27,17,25,13.60
2018,04,27,17,26,13.60
2018,04,27,17,27,13.60
2018,04,27,17,28,13.60
2018,04,27,17,29,13.60
2018,04,27,17,30,13.50
2018,04,27,17,31,13.50
2018,04,27,17,32,13.40
2018,04,27,17,33,13.40
2018,04,27,17,34,13.40
2018,04,27,17,35,13.40
2018,04,27,17,36,13.30